7 * 24
多渠道服务支持
暂未检索到STARLINK-37991(编号NORAD 100124)的公开专属参数信息。该卫星属于SpaceX星链低轨通信星座序列,常规星链卫星设计寿命约5年,通常运行在350-550公里高度轨道,核心用途为向全球偏远、通信基建薄弱区域提供高速互联网接入服务。2026年7月SpaceX已提交第三代星链卫星发射申请,新卫星容量、通信频段均有所升级,该星若为已部署批次,目前大概率处于在轨服役状态,参与全球网络覆盖组网。
美国
(US)
| 数据来源 | 国际轨道数据 |
| 星历时间: | 2026-09-15T08:08:35+0800 14小时前 查看轨道信息 |
| 半长轴: | 6722.242km |
| 偏心率: | 0.0000562 |
| 轨道倾角: | 97.281° |
| 近地点辐角 | 94.572° |
| 升交点赤经 | 276.317° |
| 平近点角 | 265.561° |
| 近地点: | 343.727km |
| 远地点: | 344.483km |
| 周期: | 91.418分钟 |
| 每日圈数: | 15.751851 |